TimeCST,TemperatureF,Dew PointF,Humidity,Sea Level PressureIn,VisibilityMPH,Wind Direction,Wind SpeedMPH,Gust SpeedMPH,PrecipitationIn,Events,Conditions,WindDirDegrees,DateUTC
12:53 AM,36.0,24.1,62,30.11,9.0,NNW,21.9,29.9,0.00,Snow,Light Snow,340,2012-12-26 06:53:00
1:53 AM,36.0,24.1,62,30.12,9.0,NNW,21.9,27.6,0.00,Snow,Light Snow,340,2012-12-26 07:53:00
2:53 AM,36.0,24.1,62,30.13,9.0,NNW,18.4,-,0.00,,Clear,330,2012-12-26 08:53:00
3:53 AM,35.1,24.1,64,30.16,10.0,NW,13.8,20.7,0.00,,Mostly Cloudy,320,2012-12-26 09:53:00
4:53 AM,36.0,24.1,62,30.16,10.0,NNW,16.1,-,0.00,,Overcast,340,2012-12-26 10:53:00
5:53 AM,36.0,24.1,62,30.19,9.0,NNW,18.4,-,0.00,,Overcast,340,2012-12-26 11:53:00
6:53 AM,36.0,24.1,62,30.20,10.0,North,19.6,25.3,N/A,,Overcast,350,2012-12-26 12:53:00
7:13 AM,35.6,24.8,65,30.19,10.0,North,13.8,20.7,N/A,,Scattered Clouds,350,2012-12-26 13:13:00
7:53 AM,35.1,24.1,64,30.22,10.0,North,10.4,-,N/A,,Clear,350,2012-12-26 13:53:00
8:53 AM,37.9,24.1,57,30.25,10.0,NNW,15.0,-,N/A,,Clear,340,2012-12-26 14:53:00
9:53 AM,39.9,23.0,51,30.27,10.0,NNW,18.4,-,N/A,,Clear,330,2012-12-26 15:53:00
10:53 AM,42.1,24.1,49,30.27,10.0,NNW,18.4,-,N/A,,Clear,330,2012-12-26 16:53:00
11:53 AM,45.0,24.1,44,30.25,10.0,NNW,15.0,-,N/A,,Clear,330,2012-12-26 17:53:00
12:53 PM,48.0,26.1,42,30.20,10.0,North,13.8,21.9,N/A,,Clear,350,2012-12-26 18:53:00
1:53 PM,50.0,26.1,39,30.17,10.0,North,10.4,19.6,N/A,,Clear,360,2012-12-26 19:53:00
2:53 PM,52.0,28.0,40,30.17,10.0,North,11.5,-,N/A,,Clear,350,2012-12-26 20:53:00
3:53 PM,52.0,27.0,38,30.14,10.0,North,8.1,-,N/A,,Clear,360,2012-12-26 21:53:00
4:53 PM,50.0,27.0,41,30.14,10.0,North,8.1,-,N/A,,Clear,10,2012-12-26 22:53:00
5:53 PM,44.6,26.6,49,30.15,10.0,NNE,6.9,-,N/A,,Clear,20,2012-12-26 23:53:00
6:53 PM,41.0,27.0,57,30.17,10.0,NNE,5.8,-,N/A,,Clear,20,2012-12-27 00:53:00
7:53 PM,37.9,28.0,68,30.17,10.0,NNE,6.9,-,N/A,,Clear,20,2012-12-27 01:53:00
8:53 PM,37.0,27.0,67,30.17,10.0,NNE,5.8,-,N/A,,Clear,30,2012-12-27 02:53:00
9:53 PM,36.0,27.0,70,30.17,10.0,NNE,4.6,-,N/A,,Clear,30,2012-12-27 03:53:00
10:53 PM,35.1,27.0,72,30.17,10.0,North,5.8,-,N/A,,Clear,10,2012-12-27 04:53:00
11:23 PM,37.4,28.4,70,30.15,10.0,NNE,5.8,-,N/A,,Mostly Cloudy,20,2012-12-27 05:23:00
11:53 PM,39.9,28.9,65,30.14,10.0,North,6.9,-,N/A,,Overcast,10,2012-12-27 05:53:00